Location: Broekland
(52.3610°N, 6.2005°E)
Time: 16:27:30
(UTC+00:00)

ACS3 Solar Sail - Pass Details

Date: 27 January 2026
Orbit: 900 x 968 km, 97.2° (Epoch: 10 February)

Event Time Altitude Azimuth Distance (km) Brightness Sun altitude
Rises 02:08:01 0° 12° (NNE) 3,625 5.3 -46.5°
Reaches altitude 10° 02:10:30 10° 13° (NNE) 2,666 4.5 -46.2°
Enters shadow 02:10:35 10° 13° (NNE) 2,631 4.4 -46.2°
